Weather in Zaglyadino

Russia / Orenburg Oblast     53°33′12″N   52°44′11″E
temp.,
°C
wind,
m/s
gust,
m/s
humid.,
%
clouds,
%
prec.,
mm/h
press.,
hPa
HPBL,
m
28 february, sun
sun2823:000sw4799100 3.9 998307
02:000wsw3599100 1.1 997225
05:00−7nw4696100 1.8 998197
08:00−12wnw4796100 0.1 999145
11:00−10nw5795100 0.1 1001252
14:00−8nw5793100 0.1 1003393
17:00−9nw5792100 0.2 1006467
20:00−12nw4795100 0.1 1008210
1 march, mon
mon123:00−15nw359699 0.1 101198
02:00−15nw359694 0.0 1013125
05:00−17nw339795 0.1 101564
08:00−17nw359783 0.1 1016122
11:00−15nw359481 0.1 1019233
14:00−14nw349289 0.0 1020305
17:00−14nw369391 0.1 1021356
20:00−19wnw339891 0.0 102231
2 march, tue
tue223:00−21w229956 0.0 102220
02:00−23wsw2210038 0.0 102120
05:00−23sw239948 0.0 102020
08:00−21s379971 0.0 1017135
11:00−16s6109586 0.0 1015308
14:00−12s71193100 0.1 1011422
17:00−10ssw71292100 0.6 1009604
20:00−8ssw71392100 0.3 1006616
3 march, wed
wed323:00−5ssw71394100 0.8 1004588
02:00−4ssw61195100 0.6 1001488
05:00−5ssw41095100 0.9 1000306
08:00−5sw359798 0.3 999139
11:00−3w469699 0.6 1000346
14:00−3wnw6893100 0.5 1001480
17:00−4nw6892100 0.6 1002616
20:00−5nw5993100 0.1 1003574
4 march, thu
thu423:00−7wnw499299 0.2 1005209
02:00−6nw5119591 0.3 1006405
05:00−11nw499486 0.3 1008161
08:00−14wnw479750 0.0 1010108
11:00−11nw5109465 0.1 1013356
14:00−8wnw589095 0.0 1014556
17:00−8wnw579198 0.1 1015577
20:00−9wsw4794100 0.1 1015264